| time (UTC) | temp F | wind direction | speed MPH | gust MPH | rain 1hr in | rain 24hr in | rain mn in | humidity % | barometer mb |
| 20260508023046 | 44 | 0 | 0.0 | 2.0 | 0.00 | 0.00 | 0.06 | 64 | 1013.5 |
| 20260508022438 | 45 | 0 | 0.0 | 1.0 | 0.00 | 0.00 | 0.06 | 66 | 1013.5 |
| 20260508021816 | 45 | 0 | 0.0 | 1.0 | 0.00 | 0.00 | 0.06 | 66 | 1013.5 |
| 20260508020945 | 46 | 0 | 0.0 | 2.0 | 0.00 | 0.00 | 0.06 | 63 | 1013.2 |
| 20260508020349 | 46 | 0 | 0.0 | 2.0 | 0.00 | 0.00 | 0.06 | 63 | 1013.2 |
| 20260508015442 | 46 | 311 | 1.0 | 3.0 | 0.00 | 0.00 | 0.06 | 63 | 1013.2 |
| 20260508014848 | 46 | 311 | 1.0 | 3.0 | 0.00 | 0.00 | 0.06 | 63 | 1013.2 |
| 20260508014239 | 47 | 0 | 0.0 | 2.0 | 0.00 | 0.00 | 0.06 | 62 | 1013.2 |
| 20260508013652 | 47 | 0 | 0.0 | 2.0 | 0.00 | 0.00 | 0.06 | 62 | 1013.2 |
| 20260508013013 | 48 | 0 | 0.0 | 4.0 | 0.00 | 0.00 | 0.06 | 60 | 1012.8 |
| 20260508012448 | 48 | 0 | 0.0 | 4.0 | 0.00 | 0.00 | 0.06 | 60 | 1012.8 |
| 20260508011837 | 48 | 0 | 0.0 | 4.0 | 0.00 | 0.00 | 0.06 | 60 | 1012.8 |
| 20260508010935 | 48 | 304 | 1.0 | 3.0 | 0.00 | 0.00 | 0.06 | 58 | 1012.5 |
| 20260508010349 | 48 | 304 | 1.0 | 3.0 | 0.00 | 0.00 | 0.06 | 58 | 1012.5 |
| 20260508005736 | 48 | 0 | 0.0 | 3.0 | 0.00 | 0.00 | 0.06 | 60 | 1012.5 |
| 20260508003908 | 49 | 308 | 3.0 | 3.0 | 0.00 | 0.00 | 0.06 | 58 | 1012.1 |
| 20260508003340 | 49 | 308 | 3.0 | 3.0 | 0.00 | 0.00 | 0.06 | 58 | 1012.1 |
| 20260508002451 | 50 | 359 | 3.0 | 3.0 | 0.00 | 0.00 | 0.06 | 59 | 1012.1 |
| 20260508001824 | 50 | 359 | 3.0 | 3.0 | 0.00 | 0.00 | 0.06 | 59 | 1012.1 |
| 20260508000949 | 50 | 350 | 1.0 | 2.0 | 0.00 | 0.00 | 0.06 | 61 | 1012.1 |
| 20260508000335 | 50 | 350 | 1.0 | 2.0 | 0.00 | 0.00 | 0.06 | 61 | 1012.1 |
| 20260507234831 | 51 | 332 | 1.0 | 3.0 | 0.00 | 0.00 | 0.06 | 55 | 1011.8 |
| 20260507233611 | 52 | 320 | 2.0 | 5.0 | 0.00 | 0.00 | 0.06 | 54 | 1011.8 |
| 20260507233013 | 52 | 296 | 1.0 | 3.0 | 0.00 | 0.00 | 0.06 | 53 | 1011.8 |
| 20260507232440 | 52 | 296 | 1.0 | 3.0 | 0.00 | 0.00 | 0.06 | 53 | 1011.8 |
| 20260507231834 | 52 | 296 | 1.0 | 3.0 | 0.00 | 0.00 | 0.06 | 53 | 1011.8 |
| 20260507231209 | 53 | 318 | 1.0 | 3.0 | 0.00 | 0.00 | 0.06 | 52 | 1011.5 |
| 20260507230638 | 53 | 318 | 1.0 | 3.0 | 0.00 | 0.00 | 0.06 | 52 | 1011.5 |
| 20260507224829 | 54 | 355 | 3.0 | 8.0 | 0.00 | 0.00 | 0.06 | 56 | 1011.5 |
| 20260507223918 | 54 | 299 | 2.0 | 7.0 | 0.00 | 0.00 | 0.06 | 54 | 1011.5 |
| 20260507223338 | 54 | 299 | 2.0 | 7.0 | 0.00 | 0.00 | 0.06 | 54 | 1011.5 |
| 20260507222719 | 54 | 352 | 1.0 | 6.0 | 0.00 | 0.00 | 0.06 | 56 | 1011.1 |
| 20260507221516 | 55 | 280 | 4.0 | 6.0 | 0.00 | 0.00 | 0.06 | 51 | 1011.1 |
| 20260507220312 | 55 | 280 | 4.0 | 6.0 | 0.00 | 0.00 | 0.06 | 51 | 1011.1 |
| 20260507215448 | 54 | 300 | 3.0 | 8.0 | 0.00 | 0.00 | 0.06 | 52 | 1010.8 |
| 20260507214815 | 54 | 300 | 3.0 | 8.0 | 0.00 | 0.00 | 0.06 | 52 | 1010.8 |
| 20260507214219 | 54 | 329 | 2.0 | 8.0 | 0.00 | 0.00 | 0.06 | 53 | 1010.8 |
| 20260507213642 | 54 | 329 | 2.0 | 8.0 | 0.00 | 0.00 | 0.06 | 53 | 1010.8 |
| 20260507213045 | 54 | 329 | 2.0 | 8.0 | 0.00 | 0.00 | 0.06 | 53 | 1010.8 |
| 20260507212409 | 54 | 316 | 2.0 | 3.0 | 0.00 | 0.00 | 0.06 | 52 | 1010.4 |
| 20260507211840 | 54 | 316 | 2.0 | 3.0 | 0.00 | 0.00 | 0.06 | 52 | 1010.4 |
| 20260507211210 | 54 | 333 | 2.0 | 5.0 | 0.00 | 0.00 | 0.06 | 54 | 1010.4 |
| 20260507210631 | 54 | 333 | 2.0 | 5.0 | 0.00 | 0.00 | 0.06 | 54 | 1010.4 |
| 20260507210013 | 53 | 355 | 3.0 | 9.0 | 0.00 | 0.00 | 0.06 | 52 | 1010.4 |
| 20260507205410 | 53 | 355 | 3.0 | 9.0 | 0.00 | 0.00 | 0.06 | 52 | 1010.4 |
| 20260507204215 | 54 | 311 | 2.0 | 4.0 | 0.00 | 0.00 | 0.06 | 56 | 1010.4 |
| 20260507203650 | 54 | 311 | 2.0 | 4.0 | 0.00 | 0.00 | 0.06 | 56 | 1010.4 |
| 20260507203050 | 54 | 311 | 2.0 | 4.0 | 0.00 | 0.00 | 0.06 | 56 | 1010.4 |
| 20260507202447 | 53 | 321 | 2.0 | 5.0 | 0.00 | 0.00 | 0.06 | 55 | 1010.4 |
| 20260507201828 | 53 | 321 | 2.0 | 5.0 | 0.00 | 0.00 | 0.06 | 55 | 1010.4 |
| 20260507200938 | 54 | 356 | 1.0 | 5.0 | 0.00 | 0.00 | 0.06 | 54 | 1010.8 |
| 20260507195752 | 53 | 330 | 2.0 | 4.0 | 0.00 | 0.00 | 0.06 | 57 | 1011.1 |
| 20260507195151 | 53 | 330 | 2.0 | 4.0 | 0.00 | 0.00 | 0.06 | 57 | 1011.1 |
| 20260507194514 | 53 | 315 | 2.0 | 6.0 | 0.00 | 0.00 | 0.06 | 58 | 1011.1 |
| 20260507193951 | 53 | 315 | 2.0 | 6.0 | 0.00 | 0.00 | 0.06 | 58 | 1011.1 |
| 20260507192437 | 53 | 323 | 1.0 | 8.0 | 0.00 | 0.00 | 0.06 | 57 | 1011.1 |
| 20260507191827 | 53 | 323 | 1.0 | 8.0 | 0.00 | 0.00 | 0.06 | 57 | 1011.1 |
| 20260507190936 | 55 | 49 | 1.0 | 10.0 | 0.00 | 0.00 | 0.06 | 55 | 1010.8 |
| 20260507185724 | 53 | 4 | 2.0 | 4.0 | 0.00 | 0.00 | 0.06 | 58 | 1011.1 |
| 20260507185150 | 53 | 4 | 2.0 | 4.0 | 0.00 | 0.00 | 0.06 | 58 | 1011.1 |
| 20260507184549 | 53 | 4 | 2.0 | 4.0 | 0.00 | 0.00 | 0.06 | 58 | 1011.1 |
| 20260507183951 | 53 | 320 | 2.0 | 5.0 | 0.00 | 0.00 | 0.06 | 61 | 1011.1 |
| 20260507183308 | 53 | 320 | 2.0 | 5.0 | 0.00 | 0.00 | 0.06 | 61 | 1011.1 |
| 20260507182417 | 55 | 328 | 2.0 | 6.0 | 0.00 | 0.00 | 0.06 | 57 | 1011.1 |
| 20260507181850 | 55 | 328 | 2.0 | 6.0 | 0.00 | 0.00 | 0.06 | 57 | 1011.1 |
| 20260507181227 | 56 | 12 | 6.0 | 9.0 | 0.00 | 0.00 | 0.06 | 62 | 1011.1 |
| 20260507180617 | 56 | 12 | 6.0 | 9.0 | 0.00 | 0.00 | 0.06 | 62 | 1011.1 |
| 20260507175424 | 54 | 45 | 3.0 | 6.0 | 0.00 | 0.00 | 0.06 | 60 | 1011.5 |
| 20260507174829 | 54 | 45 | 3.0 | 6.0 | 0.00 | 0.00 | 0.06 | 60 | 1011.5 |
| 20260507173945 | 54 | 309 | 2.0 | 5.0 | 0.00 | 0.00 | 0.06 | 62 | 1011.5 |
| 20260507172732 | 54 | 2 | 3.0 | 9.0 | 0.00 | 0.00 | 0.06 | 63 | 1011.5 |
| 20260507172129 | 54 | 2 | 3.0 | 9.0 | 0.00 | 0.00 | 0.06 | 63 | 1011.5 |
| 20260507170911 | 51 | 327 | 3.0 | 8.0 | 0.00 | 0.00 | 0.06 | 65 | 1011.8 |
| 20260507170321 | 51 | 327 | 3.0 | 8.0 | 0.00 | 0.00 | 0.06 | 65 | 1011.8 |
| 20260507165432 | 52 | 334 | 2.0 | 6.0 | 0.00 | 0.00 | 0.06 | 65 | 1012.1 |
| 20260507164846 | 52 | 334 | 2.0 | 6.0 | 0.00 | 0.00 | 0.06 | 65 | 1012.1 |
| 20260507163923 | 52 | 64 | 4.0 | 6.0 | 0.00 | 0.00 | 0.06 | 69 | 1012.1 |
| 20260507162447 | 50 | 336 | 3.0 | 6.0 | 0.00 | 0.00 | 0.06 | 73 | 1012.5 |
| 20260507161847 | 50 | 336 | 3.0 | 6.0 | 0.00 | 0.00 | 0.06 | 73 | 1012.5 |
| 20260507161236 | 50 | 318 | 1.0 | 5.0 | 0.00 | 0.00 | 0.06 | 74 | 1012.5 |
| 20260507160647 | 50 | 318 | 1.0 | 5.0 | 0.00 | 0.00 | 0.06 | 74 | 1012.5 |
| 20260507160048 | 50 | 318 | 1.0 | 5.0 | 0.00 | 0.00 | 0.06 | 74 | 1012.5 |
| 20260507155436 | 49 | 319 | 3.0 | 8.0 | 0.00 | 0.00 | 0.06 | 76 | 1012.5 |
| 20260507154825 | 49 | 319 | 3.0 | 8.0 | 0.00 | 0.00 | 0.06 | 76 | 1012.5 |
| 20260507154227 | 49 | 332 | 2.0 | 3.0 | 0.00 | 0.00 | 0.06 | 78 | 1012.5 |
| 20260507153642 | 49 | 332 | 2.0 | 3.0 | 0.00 | 0.00 | 0.06 | 78 | 1012.5 |
| 20260507153047 | 49 | 332 | 2.0 | 3.0 | 0.00 | 0.00 | 0.06 | 78 | 1012.5 |
| 20260507151221 | 47 | 0 | 0.0 | 2.0 | 0.00 | 0.00 | 0.06 | 82 | 1012.5 |
| 20260507150649 | 47 | 0 | 0.0 | 2.0 | 0.00 | 0.00 | 0.06 | 82 | 1012.5 |
| 20260507150015 | 47 | 0 | 0.0 | 3.0 | 0.00 | 0.00 | 0.06 | 85 | 1012.8 |
| 20260507145432 | 47 | 0 | 0.0 | 3.0 | 0.00 | 0.00 | 0.06 | 85 | 1012.8 |
| 20260507144824 | 47 | 0 | 0.0 | 3.0 | 0.00 | 0.00 | 0.06 | 85 | 1012.8 |
| 20260507144217 | 46 | 356 | 2.0 | 2.0 | 0.00 | 0.00 | 0.06 | 87 | 1013.2 |
| 20260507143646 | 46 | 356 | 2.0 | 2.0 | 0.00 | 0.00 | 0.06 | 87 | 1013.2 |
| 20260507142415 | 45 | 331 | 1.0 | 3.0 | 0.00 | 0.00 | 0.06 | 87 | 1013.5 |
| 20260507141817 | 45 | 331 | 1.0 | 3.0 | 0.00 | 0.00 | 0.06 | 87 | 1013.5 |
| 20260507140926 | 45 | 350 | 1.0 | 2.0 | 0.00 | 0.00 | 0.06 | 91 | 1013.5 |
| 20260507140342 | 45 | 350 | 1.0 | 2.0 | 0.00 | 0.00 | 0.06 | 91 | 1013.5 |
| 20260507135418 | 45 | 0 | 0.0 | 2.0 | 0.00 | 0.00 | 0.06 | 94 | 1013.5 |
| 20260507134816 | 45 | 0 | 0.0 | 2.0 | 0.00 | 0.00 | 0.06 | 94 | 1013.5 |
| 20260507134217 | 44 | 0 | 0.0 | 4.0 | 0.00 | 0.00 | 0.06 | 94 | 1013.8 |
| 20260507133622 | 44 | 0 | 0.0 | 4.0 | 0.00 | 0.00 | 0.06 | 94 | 1013.8 |
| 20260507133045 | 44 | 0 | 0.0 | 4.0 | 0.00 | 0.00 | 0.06 | 94 | 1013.8 |
| 20260507132447 | 44 | 0 | 0.0 | 2.0 | 0.00 | 0.00 | 0.06 | 96 | 1013.8 |
| 20260507131816 | 44 | 0 | 0.0 | 2.0 | 0.00 | 0.00 | 0.06 | 96 | 1013.8 |
| 20260507130911 | 44 | 9 | 1.0 | 2.0 | 0.00 | 0.00 | 0.06 | 96 | 1013.8 |
| 20260507130311 | 44 | 9 | 1.0 | 2.0 | 0.00 | 0.00 | 0.06 | 96 | 1013.8 |
| 20260507124550 | 43 | 0 | 0.0 | 3.0 | 0.00 | 0.00 | 0.06 | 97 | 1013.8 |
| 20260507123943 | 43 | 0 | 0.0 | 3.0 | 0.00 | 0.00 | 0.06 | 97 | 1013.8 |
| 20260507123343 | 43 | 0 | 0.0 | 3.0 | 0.00 | 0.00 | 0.06 | 97 | 1013.8 |
| 20260507122425 | 43 | 350 | 1.0 | 2.0 | 0.00 | 0.00 | 0.06 | 96 | 1013.8 |
| 20260507121835 | 43 | 350 | 1.0 | 2.0 | 0.00 | 0.00 | 0.06 | 96 | 1013.8 |
| 20260507121211 | 43 | 174 | 1.0 | 2.0 | 0.00 | 0.00 | 0.06 | 97 | 1013.8 |
| 20260507120620 | 43 | 174 | 1.0 | 2.0 | 0.00 | 0.00 | 0.06 | 97 | 1013.8 |
| 20260507115423 | 42 | 0 | 0.0 | 0.0 | 0.00 | 0.00 | 0.06 | 97 | 1013.8 |
| 20260507114843 | 42 | 0 | 0.0 | 0.0 | 0.00 | 0.00 | 0.06 | 97 | 1013.8 |
| 20260507113916 | 43 | 0 | 0.0 | 0.0 | 0.00 | 0.00 | 0.06 | 97 | 1013.5 |
| 20260507113326 | 43 | 0 | 0.0 | 0.0 | 0.00 | 0.00 | 0.06 | 97 | 1013.5 |
| 20260507112752 | 42 | 0 | 0.0 | 0.0 | 0.00 | 0.00 | 0.06 | 97 | 1013.2 |
| 20260507111513 | 42 | 0 | 0.0 | 0.0 | 0.00 | 0.00 | 0.06 | 97 | 1012.8 |
| 20260507110940 | 42 | 0 | 0.0 | 0.0 | 0.00 | 0.00 | 0.06 | 97 | 1012.8 |
| 20260507110320 | 42 | 0 | 0.0 | 0.0 | 0.00 | 0.00 | 0.06 | 97 | 1012.8 |
| 20260507105717 | 42 | 0 | 0.0 | 1.0 | 0.00 | 0.00 | 0.06 | 97 | 1012.8 |
| 20260507105143 | 42 | 0 | 0.0 | 1.0 | 0.00 | 0.00 | 0.06 | 97 | 1012.8 |
| 20260507104546 | 42 | 0 | 0.0 | 1.0 | 0.00 | 0.00 | 0.06 | 97 | 1012.8 |
| 20260507103320 | 43 | 0 | 0.0 | 1.0 | 0.00 | 0.00 | 0.06 | 97 | 1012.8 |
| 20260507102412 | 43 | 0 | 0.0 | 1.0 | 0.00 | 0.00 | 0.06 | 97 | 1012.5 |
| 20260507101824 | 43 | 0 | 0.0 | 1.0 | 0.00 | 0.00 | 0.06 | 97 | 1012.5 |
| 20260507100912 | 43 | 353 | 1.0 | 1.0 | 0.00 | 0.00 | 0.06 | 97 | 1012.8 |
| 20260507100332 | 43 | 353 | 1.0 | 1.0 | 0.00 | 0.00 | 0.06 | 97 | 1012.8 |
| 20260507095740 | 43 | 0 | 0.0 | 1.0 | 0.00 | 0.00 | 0.06 | 97 | 1012.5 |
| 20260507095110 | 43 | 0 | 0.0 | 1.0 | 0.00 | 0.00 | 0.06 | 97 | 1012.5 |
| 20260507093930 | 43 | 0 | 0.0 | 2.0 | 0.00 | 0.00 | 0.05 | 97 | 1012.1 |
| 20260507093344 | 43 | 0 | 0.0 | 2.0 | 0.00 | 0.00 | 0.05 | 97 | 1012.1 |
| 20260507092744 | 43 | 0 | 0.0 | 2.0 | 0.00 | 0.00 | 0.05 | 97 | 1012.5 |
| 20260507092130 | 43 | 0 | 0.0 | 2.0 | 0.00 | 0.00 | 0.05 | 97 | 1012.5 |
| 20260507091510 | 44 | 314 | 1.0 | 3.0 | 0.00 | 0.00 | 0.05 | 96 | 1012.5 |
| 20260507090939 | 44 | 314 | 1.0 | 3.0 | 0.00 | 0.00 | 0.05 | 96 | 1012.5 |
| 20260507090318 | 44 | 314 | 1.0 | 3.0 | 0.00 | 0.00 | 0.05 | 96 | 1012.5 |
| 20260507085715 | 44 | 319 | 1.0 | 2.0 | 0.00 | 0.00 | 0.05 | 97 | 1012.1 |
| 20260507085109 | 44 | 319 | 1.0 | 2.0 | 0.00 | 0.00 | 0.05 | 97 | 1012.1 |
| 20260507084541 | 44 | 319 | 1.0 | 2.0 | 0.00 | 0.00 | 0.05 | 97 | 1012.1 |
| 20260507083925 | 44 | 0 | 0.0 | 1.0 | 0.00 | 0.00 | 0.04 | 97 | 1012.5 |
| 20260507083327 | 44 | 0 | 0.0 | 1.0 | 0.00 | 0.00 | 0.04 | 97 | 1012.5 |
| 20260507082448 | 44 | 0 | 0.0 | 1.0 | 0.00 | 0.00 | 0.03 | 97 | 1012.5 |
| 20260507081818 | 44 | 0 | 0.0 | 1.0 | 0.00 | 0.00 | 0.03 | 97 | 1012.5 |
| 20260507080917 | 44 | 0 | 0.0 | 1.0 | 0.00 | 0.00 | 0.03 | 97 | 1012.5 |
| 20260507080337 | 44 | 0 | 0.0 | 1.0 | 0.00 | 0.00 | 0.03 | 97 | 1012.5 |
| 20260507075415 | 44 | 0 | 0.0 | 1.0 | 0.00 | 0.00 | 0.02 | 97 | 1012.5 |
| 20260507074246 | 44 | 0 | 0.0 | 0.0 | 0.00 | 0.00 | 0.02 | 97 | 1012.5 |
| 20260507073046 | 44 | 0 | 0.0 | 0.0 | 0.00 | 0.00 | 0.02 | 97 | 1012.5 |
| 20260507072432 | 44 | 0 | 0.0 | 0.0 | 0.00 | 0.00 | 0.02 | 97 | 1012.5 |
| 20260507071846 | 44 | 0 | 0.0 | 0.0 | 0.00 | 0.00 | 0.02 | 97 | 1012.5 |
| 20260507070310 | 44 | 0 | 0.0 | 0.0 | 0.00 | 0.00 | 0.02 | 97 | 1012.5 |
| 20260507065753 | 44 | 0 | 0.0 | 0.0 | 0.00 | 0.00 | 0.02 | 97 | 1012.5 |
| 20260507064514 | 44 | 0 | 0.0 | 0.0 | 0.00 | 0.00 | 0.02 | 97 | 1012.5 |
| 20260507063913 | 44 | 0 | 0.0 | 0.0 | 0.00 | 0.00 | 0.02 | 97 | 1012.5 |
| 20260507063347 | 44 | 0 | 0.0 | 0.0 | 0.00 | 0.00 | 0.02 | 97 | 1012.5 |
| 20260507062448 | 44 | 0 | 0.0 | 0.0 | 0.00 | 0.00 | 0.02 | 97 | 1012.8 |
| 20260507061838 | 44 | 0 | 0.0 | 0.0 | 0.00 | 0.00 | 0.02 | 97 | 1012.8 |
| 20260507061227 | 44 | 0 | 0.0 | 0.0 | 0.00 | 0.00 | 0.02 | 96 | 1012.8 |
| 20260507060648 | 44 | 0 | 0.0 | 0.0 | 0.00 | 0.00 | 0.02 | 96 | 1012.8 |
| 20260507060052 | 44 | 0 | 0.0 | 0.0 | 0.00 | 0.00 | 0.02 | 96 | 1012.8 |
| 20260507055454 | 45 | 0 | 0.0 | 0.0 | 0.00 | 0.00 | 0.02 | 96 | 1013.2 |
| 20260507054834 | 45 | 0 | 0.0 | 0.0 | 0.00 | 0.00 | 0.02 | 96 | 1013.2 |
| 20260507053926 | 45 | 336 | 1.0 | 2.0 | 0.00 | 0.00 | 0.01 | 96 | 1013.5 |
| 20260507052445 | 45 | 346 | 1.0 | 4.0 | 0.00 | 0.00 | 0.01 | 96 | 1013.5 |
| 20260507051846 | 45 | 346 | 1.0 | 4.0 | 0.00 | 0.00 | 0.01 | 96 | 1013.5 |
| 20260507050911 | 45 | 0 | 0.0 | 2.0 | 0.00 | 0.00 | 0.01 | 96 | 1013.2 |
| 20260507050342 | 45 | 0 | 0.0 | 2.0 | 0.00 | 0.00 | 0.01 | 96 | 1013.2 |
| 20260507045431 | 45 | 319 | 1.0 | 2.0 | 0.00 | 0.00 | 0.01 | 96 | 1013.2 |
| 20260507044813 | 45 | 319 | 1.0 | 2.0 | 0.00 | 0.00 | 0.01 | 96 | 1013.2 |
| 20260507043954 | 46 | 344 | 1.0 | 2.0 | 0.00 | 0.00 | 0.01 | 96 | 1013.2 |
| 20260507042439 | 46 | 336 | 1.0 | 3.0 | 0.00 | 0.00 | 0.00 | 96 | 1012.8 |
| 20260507041839 | 46 | 336 | 1.0 | 3.0 | 0.00 | 0.00 | 0.00 | 96 | 1012.8 |
| 20260507041247 | 46 | 5 | 1.0 | 3.0 | 0.00 | 0.00 | 0.00 | 96 | 1012.8 |
| 20260507040627 | 46 | 5 | 1.0 | 3.0 | 0.00 | 0.00 | 0.00 | 96 | 1012.8 |
| 20260507035415 | 47 | 352 | 3.0 | 3.0 | 0.00 | 0.00 | 0.70 | 96 | 1012.8 |
| 20260507034838 | 47 | 352 | 3.0 | 3.0 | 0.00 | 0.00 | 0.70 | 96 | 1012.8 |
| 20260507033911 | 48 | 320 | 1.0 | 3.0 | 0.00 | 0.00 | 0.69 | 96 | 1012.8 |
| 20260507033343 | 48 | 320 | 1.0 | 3.0 | 0.00 | 0.00 | 0.69 | 96 | 1012.8 |
| 20260507032422 | 48 | 0 | 0.0 | 2.0 | 0.00 | 0.00 | 0.68 | 97 | 1013.8 |
| 20260507031842 | 48 | 0 | 0.0 | 2.0 | 0.00 | 0.00 | 0.68 | 97 | 1013.8 |
| 20260507030950 | 48 | 0 | 0.0 | 2.0 | 0.00 | 0.00 | 0.68 | 97 | 1013.2 |
| 20260507030351 | 48 | 0 | 0.0 | 2.0 | 0.00 | 0.00 | 0.68 | 97 | 1013.2 |
| 20260507025437 | 48 | 0 | 0.0 | 2.0 | 0.00 | 0.00 | 0.67 | 96 | 1012.8 |
| 20260507024813 | 48 | 0 | 0.0 | 2.0 | 0.00 | 0.00 | 0.67 | 96 | 1012.8 |
| 20260507023911 | 48 | 0 | 0.0 | 2.0 | 0.00 | 0.00 | 0.66 | 96 | 1012.8 |